Regional Weather Roundup
Issued by NWS Upton, NY

Current Version | Previous Version | Graphics & Text | Print | Product List | Glossary Off
Versions: 1 2 3 4 5 6 7 8 9 10 11 12 13 14 15 16 17 18 19 20 21 22 23 24 25 26 27

000
ASUS41 KOKX 241909
RWROKX

REGIONAL WEATHER ROUNDUP
NATIONAL WEATHER SERVICE NEW YORK NY
300 PM EDT SUN SEP 24 2017

NOTE: "FAIR" INDICATES FEW OR NO CLOUDS BELOW 12,000 FEET WITH NO
SIGNIFICANT WEATHER AND/OR OBSTRUCTIONS TO VISIBILITY.

NYZ071-072-176-178-NJZ106-104-242000-
NEW YORK CITY METRO AREA

CITY           SKY/WX    TMP DP  RH WIND       PRES   REMARKS
Central Park   SUNNY     90  62  39 CALM      30.06F HX  90
Bronx Bot Gard   N/A     90  63  40 W9        30.05F HX  90
LaGuardia APRT MOSUNNY   90  65  43 VRB5      30.03F HX  92
Kennedy INTL   SUNNY     87  65  47 S10       30.05S
Breezy Point     N/A     81 N/A N/A S6          N/A
Newark/Liberty SUNNY     91  62  37 E8        30.03F HX  91
Teterboro      SUNNY     91  65  41 N9        30.02F HX  93
$$

NYZ177-179-078>081-242000-
LONG ISLAND NEW YORK

CITY           SKY/WX    TMP DP  RH WIND       PRES   REMARKS
Jones Beach      N/A     79 N/A N/A S7          N/A
Matinecock PT    N/A     81 N/A N/A NE3         N/A
Farmingdale    SUNNY     87  64  46 NE7       30.04F
MacArthur/ISP  SUNNY     83  62  49 SE9       30.04S
Shirley        SUNNY     84  63  49 E6        30.05S
Mt Sinai Harb    N/A     84 N/A N/A SE3         N/A
Westhampton    SUNNY     82  60  47 SE7       30.06S
East Hampton   FAIR      78  61  54 S3        30.04F
Montauk          N/A     78  60  53 VRB5      30.05F
$$

NYZ052-065-067-242000-
HUDSON VALLEY

CITY           SKY/WX    TMP DP  RH WIND       PRES   REMARKS
White Plains   SUNNY     88  64  44 S6        30.05F
Larchmont Harb   N/A     79 N/A N/A CALM        N/A
Croton On Huds   N/A     82 N/A N/A W10         N/A
Newburgh       NOT AVBL
Montgomery     SUNNY     88  67  49 N5        30.05F HX  91
Poughkeepsie   SUNNY     89  64  43 N7        30.03F HX  90
Albany         SUNNY     89  67  47 N6        30.06F HX  92
$$

NJZ001-105-106-008-010-013-015-019>022-104-242000-
NEW JERSEY

CITY           SKY/WX    TMP DP  RH WIND       PRES   REMARKS
Newark/Liberty SUNNY     91  62  37 E8        30.03F HX  91
Teterboro      SUNNY     91  65  41 N9        30.02F HX  93
Caldwell       SUNNY     90  66  45 VRB3      30.04F HX  92
Somerville     NOT AVBL
Linden         NOT AVBL
Perth Amboy      N/A     82 N/A N/A SE7         N/A
Sussex         SUNNY     88  65  46 NE6       30.07F HX  90
Andover          N/A     88  63  43 CALM      30.07F
Trenton        SUNNY     90  66  45 CALM      30.04F HX  92
Millville      SUNNY     90  68  48 NE7       30.04F HX  94
Atlantic City  SUNNY     84  65  52 SE9       30.04F
Wrightstown    SUNNY     88  65  47 NE12      30.01F
Toms River     SUNNY     87  64  46 SE7       30.05F
Belmar         SUNNY     85  65  51 E7        30.05F
$$

PAZ047>061-062-071-242000-
EASTERN PENNSYLVANIA

CITY           SKY/WX    TMP DP  RH WIND       PRES   REMARKS
Philadelphia   MOSUNNY   91  64  40 E9        30.03F HX  92
Allentown      SUNNY     90  65  43 NE9       30.06F HX  92
Scranton       SUNNY     90  66  45 N5        30.10F HX  92
$$

CTZ002-004>006-009-010-012-RIZ004-006-007-MAZ004-011-015-242000-
SOUTHERN NEW ENGLAND
 IN CT

CITY           SKY/WX    TMP DP  RH WIND       PRES   REMARKS
Bradley INTL   SUNNY     90  64  42 N3        30.03F HX  91
Hartford       SUNNY     90  66  45 N9        30.02F HX  92
Danbury        SUNNY     88  65  46 NE5       30.06F HX  90
Wtrbury/Oxford SUNNY     87  65  47 VRB3      30.07F
Norwalk Harbor   N/A     77 N/A N/A S6          N/A
Bridgeport     SUNNY     83  64  52 S7        30.03F
Meriden        SUNNY     90  64  42 CALM      30.03F HX  91
New Haven      MOSUNNY   82  66  58 S8        30.04F
Chester        FAIR      86  66  51 S6        30.05S
Groton         SUNNY     76  62  62 SW5       30.04F
Wilimantic     SUNNY     91  64  40 E3        30.03S HX  92

 IN RI

CITY           SKY/WX    TMP DP  RH WIND       PRES   REMARKS
Providence     MOSUNNY   86  67  52 S7        30.04S
Block Island   SUNNY     78  60  53 E5        30.05F
Westerly       SUNNY     79  61  53 SW5       30.05F
 IN MA

CITY           SKY/WX    TMP DP  RH WIND       PRES   REMARKS
Boston         SUNNY     74  63  68 SE8       30.03S
Worcester      SUNNY     84  63  49 E3        30.07F
Westfield      SUNNY     91  64  40 VRB5      30.03F HX  92
Provincetown   SUNNY     71  66  84 N5        30.04F
Nantucket      SUNNY     71  68  90 NE9       30.03S
$$

ANZ330-335-338-340-345-350-353-355-242000-
COASTAL MARINE OBSERVATIONS


STATION/POSITION TIME  SKY/WX   TEMP    WIND        PRES    VSBY  WAVE
                                AIR SEA DIR/SP/G                  HT/PER
                 (UTC)          (F)     (DEG/KT/KT) (MB)    (MI)  (FT/S)
NY HARB ENTRANCE 1750            77 74     CALM     1017.0          3/11
20 S FIRE ISLAND 1750            71 70   40/  2/  2 1017.8          4/15
GREAT SOUTH BAY  1830            75 73  170/  4/  8   N/A
23 SSW MONTAUK P 1750            68 66              1017.9          5/15
15 E BARNEGAT LI 1830               71                N/A           4/11
HUDSON CANYON    1750            69 70   30/  6/  8 1016.9          6/12
KINGS POINT      1830            86 72   60/  4/  5 1017.9
EXECUTION ROCKS  1845            80     340/  4/  6   N/A
WESTERN LI SOUND NOT AVBL
CENTRAL LI SOUND 1800            73     220/  4/  6   N/A           0
EASTERN LI SOUND NOT AVBL
ROBBINS REEF     1848            85     170/  5/  5 1017.8
$$


>>>>>>>>>>>>>>>>>>>>>>>>>>>> KEY <<<<<<<<<<<<<<<<<<<<<<<<<<<
>                                                          <
>     SKY/WX - Sky Condition/Present Weather               <
>     TMP    - Temperature in Fahrenheit                   <
>     DP     - Dew Point in Fahrenheit                     <
>     RH     - Relative Humidity in Percent                <
>     WIND   - Direction (from) and Speed in MPH           <
>     PRES   - Mean Sea Level Pressure (inches of Hg)      <
>     WCI    - Wind Chill Index                            <
>     VSB    - VISIBILITY IN MILES                         <
>     HX     - HEAT INDEX                                  <
>     TC     - TEMPERATURE IN CELSIUS                      <
>     VRB    - VARIABLE WIND DIRECTION                     <
>                                                          <
>>>>>>>>>>>>>>>>>>>>>>>>>>>> KEY <<<<<<<<<<<<<<<<<<<<<<<<<<<




USA.gov is the U.S. government's official web portal to all federal, state and local government web resources and services.